EXPRESS-AM6

Last updated on Thu Nov 21 2024 00:02:42 GMT+0000 (Coordinated Universal Time)

1 40277U 14064A 24325.21160664 .00000099 00000+0 00000+0 0 9993 2 40277 0.0177 289.1023 0000815 328.4123 291.3944 1.00272638 35828
UTC large
Height (km)
Speed (km/s)
/
Latitude / Longitude
Inclination (degrees)
Orbital Period (minutes)
Azimuth
Elevation
Range (km)
Doppler Factor

Next 0 passes for location: London (51.5072 / 0.1276)

Sorry there are no passes over London.